sat.trackr.live / text

‹ back to catalog

STARLINK-5199

NORAD 54201 · 2022-141AW

PAYLOAD ACTIVE UNKNOWN

§ Identity

Operator
Country
US
Launch date
2022-10-28
Launch site
AFWTR
Launch vehicle
Mass (kg)
RCS (m²)

Purposes: comms

External: N2YO · Heavens-Above · Gunter

§ Orbital elements

Epoch: 2026-09-20T12:42:34.718400Z

Period
93.85 min
Inclination
53.1601°
Eccentricity
0.0001295
Mean motion
15.34389961 rev/d
Perigee alt
461.8 km
Apogee alt
463.6 km
Semi-major
6,840.9 km
B*
2.1698e-5
RAAN
187.4492°
Arg perigee
86.4356°
Mean anomaly
273.6794°
Rev number
21,557

§ Raw data

STARLINK-51991 54201U 22141AW  26263.52956850  .00000357  00000+0  21698-4 0  99952 54201  53.1601 187.4492 0001295  86.4356 273.6794 15.34389961215571

JSON: /api/v1/satellites/54201 · /tle

For live sub-satellite position, see the globe view (requires WebGL).

§ Visibility from observer

Set your observer location to see the next 7 days of passes ≥ 10°. The values pass through the URL so the page stays shareable.

No JS? Fill the form by hand. The geolocation button needs JavaScript.